Location: Newark
(49.3808°N, 3.1844°E)
Time: 01:07:33
(UTC+00:00)

Courier 1B - Visible Passes

Search period start: 15 November 2019 00:00
Search period end: 25 November 2019 00:00
Orbit: 963 x 1209 km, 28.3° (Epoch: 13 November)

Date Brightness Start Highest point End Pass type
(mag) Time Alt. Az. Time Alt. Az. Time Alt. Az.
21 Nov 10.0 06:22:01 10° SSW 06:23:46 11° S 06:25:30 10° SSE visible
22 Nov 10.0 05:28:48 10° S 05:30:22 11° S 05:31:55 10° SSE visible
23 Nov 10.0 04:36:16 10° S 04:36:57 10° S 04:37:39 10° SSE visible
23 Nov 10.0 06:27:34 10° SSW 06:29:31 11° S 06:31:26 10° SSE visible
24 Nov 9.9 05:33:42 10° SSW 05:36:06 12° S 05:38:29 10° SSE visible
